sat.trackr.live / text

‹ back to catalog

STARLINK-3619

NORAD 51787 · 2022-017V

PAYLOAD ACTIVE UNKNOWN

§ Identity

Operator
Country
US
Launch date
2022-02-25
Launch site
AFWTR
Launch vehicle
Mass (kg)
RCS (m²)

Purposes: comms

External: N2YO · Heavens-Above · Gunter

§ Orbital elements

Epoch: 2026-05-24T21:55:49.136160Z

Period
95.44 min
Inclination
53.2131°
Eccentricity
0.0001462
Mean motion
15.08844499 rev/d
Perigee alt
538.7 km
Apogee alt
540.7 km
Semi-major
6,917.9 km
B*
6.9686e-5
RAAN
6.9360°
Arg perigee
56.6074°
Mean anomaly
303.5058°
Rev number
23,378

§ Raw data

STARLINK-36191 51787U 22017V   26144.91376315  .00000821  00000+0  69686-4 0  99912 51787  53.2131   6.9360 0001462  56.6074 303.5058 15.08844499233789

JSON: /api/v1/satellites/51787 · /tle

For live sub-satellite position, see the globe view (requires WebGL).

§ Visibility from observer

Set your observer location to see the next 7 days of passes ≥ 10°. The values pass through the URL so the page stays shareable.

No JS? Fill the form by hand. The geolocation button needs JavaScript.